Fort Pierce, FL

8:04 AM EDT on September 28, 2016 (GMT -0400)
Saint Lucie County International

Weather History for KFPR - September, 2012

Change the Weather History Date:

Wednesday, September 12, 2012

  Actual Average Record
Temperature  
Mean Temperature 82 °F -  
Max Temperature 87 °F 89 °F 95 °F (1945)
Min Temperature 78 °F 72 °F 65 °F (1993)
Cooling Degree Days 17    
Growing Degree Days 32 (Base 50)    
Moisture  
Dew Point 71 °F    
Average Humidity 72    
Maximum Humidity 81    
Minimum Humidity 60    
Precipitation  
Precipitation 0.00 in - - ()
Sea Level Pressure  
Sea Level Pressure 30.07 in    
Wind  
Wind Speed 9 mph (ENE)    
Max Wind Speed 17 mph    
Max Gust Speed 24 mph    
Visibility 10 miles    
Events      
Averages and records for this station are not official NWS values.
T = Trace of Precipitation, MM = Missing Value Source: NWS Daily Summary

Daily Weather History Graph

Daily Weather History Graph

Search for Another Location

Airport or City:

Trip Planner

Search our weather history database for the weather conditions in past years. The results will help you decide how hot, cold, wet, or windy it might be!

Date:

Astronomy

Sep. 12, 2012 Rise Set
Actual Time 7:05 AM EDT 7:29 PM EDT
Civil Twilight 6:42 AM EDT 7:52 PM EDT
Nautical Twilight 6:14 AM EDT 8:19 PM EDT
Astronomical Twilight 5:47 AM EDT 8:47 PM EDT
Moon 3:36 AM EDT (9/12) 5:03 PM EDT (9/12)
Length of Visible Light 13h 10m
Length of Day
12h 23m
Waning Crescent, 14% of the Moon is Illuminated
Sep 12
Waning Crescent
Sep 15
New
Sep 22
First Quarter
Sep 29
Full
Oct 8
Last Quarter

Hourly Weather History & Observations

Time (EDT) Temp. Heat Index Dew Point Humidity Pressure Visibility Wind Dir Wind Speed Gust Speed Precip Events Conditions
12:53 AM 80.1 °F 84.2 °F 73.0 °F 79% 30.10 in 10.0 mi East 8.1 mph - N/A   Mostly Cloudy
1:53 AM 80.1 °F 83.2 °F 70.0 °F 71% 30.08 in 10.0 mi East 6.9 mph - N/A   Overcast
2:53 AM 80.1 °F 83.2 °F 70.0 °F 71% 30.06 in 10.0 mi East 9.2 mph - N/A   Clear
3:53 AM 79.0 °F - 69.1 °F 72% 30.05 in 10.0 mi East 6.9 mph - N/A   Clear
4:53 AM 78.1 °F - 70.0 °F 76% 30.04 in 10.0 mi ENE 4.6 mph - N/A   Clear
5:53 AM 79.0 °F - 70.0 °F 74% 30.05 in 10.0 mi ENE 4.6 mph - N/A   Clear
6:53 AM 78.1 °F - 71.1 °F 79% 30.06 in 10.0 mi ENE 4.6 mph - N/A   Clear
7:53 AM 80.1 °F 83.6 °F 71.1 °F 74% 30.08 in 10.0 mi ENE 5.8 mph - N/A   Clear
8:53 AM 82.9 °F 88.0 °F 72.0 °F 69% 30.09 in 10.0 mi East 8.1 mph - N/A   Clear
9:53 AM 81.0 °F 83.0 °F 66.0 °F 60% 30.10 in 10.0 mi ENE 10.4 mph 18.4 mph 0.00 in   Mostly Cloudy
10:53 AM 84.9 °F 90.7 °F 72.0 °F 65% 30.11 in 10.0 mi East 11.5 mph 21.9 mph N/A   Scattered Clouds
11:53 AM 86.0 °F 92.2 °F 72.0 °F 63% 30.11 in 10.0 mi ENE 13.8 mph 19.6 mph N/A   Scattered Clouds
12:53 PM 86.0 °F 92.2 °F 72.0 °F 63% 30.10 in 10.0 mi East 13.8 mph 21.9 mph N/A   Scattered Clouds
1:53 PM 86.0 °F 93.0 °F 73.0 °F 65% 30.09 in 10.0 mi East 17.3 mph - N/A   Scattered Clouds
2:53 PM 84.9 °F 92.1 °F 73.9 °F 69% 30.07 in 10.0 mi ENE 15.0 mph 21.9 mph N/A   Mostly Cloudy
3:53 PM 82.9 °F 88.8 °F 73.0 °F 72% 30.05 in 10.0 mi ENE 13.8 mph 23.0 mph N/A   Mostly Cloudy
4:53 PM 82.9 °F 88.0 °F 72.0 °F 69% 30.05 in 10.0 mi ENE 9.2 mph 20.7 mph N/A   Scattered Clouds
5:53 PM 81.0 °F 85.8 °F 73.0 °F 77% 30.06 in 10.0 mi Variable 6.9 mph - N/A   Mostly Cloudy
6:53 PM 80.1 °F 83.8 °F 72.0 °F 76% 30.05 in 10.0 mi ENE 9.2 mph 17.3 mph 0.00 in   Mostly Cloudy
7:53 PM 80.1 °F 84.2 °F 73.0 °F 79% 30.05 in 10.0 mi ENE 9.2 mph 18.4 mph N/A   Scattered Clouds
8:53 PM 80.1 °F 84.5 °F 73.9 °F 81% 30.06 in 10.0 mi East 13.8 mph - N/A   Mostly Cloudy
9:53 PM 81.0 °F 85.8 °F 73.0 °F 77% 30.07 in 10.0 mi East 10.4 mph - N/A   Overcast
10:53 PM 81.0 °F 84.9 °F 71.1 °F 72% 30.08 in 10.0 mi East 13.8 mph - N/A   Mostly Cloudy
11:53 PM 81.0 °F 84.1 °F 69.1 °F 67% 30.07 in 10.0 mi East 12.7 mph 24.2 mph N/A   Clear